owner,sensor,date,latitude,longitude,vertical_datum,sea_water_temperature,qcFlag 
ENP,ioos.station.NOAA.NDBC:DKKF1:1,2019-08-01T01:00:00Z,25.1800,-80.4900,1.0,32.37,11111222 
ENP,ioos.station.NOAA.NDBC:DKKF1:1,2019-08-01T03:00:00Z,25.1800,-80.4900,1.0,31.93,11111222 
ENP,ioos.station.NOAA.NDBC:DKKF1:1,2019-08-01T04:00:00Z,25.1800,-80.4900,1.0,31.63,11111222 
ENP,ioos.station.NOAA.NDBC:DKKF1:1,2019-08-01T05:00:00Z,25.1800,-80.4900,1.0,31.6,11111222 
ENP,ioos.station.NOAA.NDBC:DKKF1:1,2019-08-01T06:00:00Z,25.1800,-80.4900,1.0,31.54,11111222 
ENP,ioos.station.NOAA.NDBC:DKKF1:1,2019-08-01T07:00:00Z,25.1800,-80.4900,1.0,31.26,11111222 
ENP,ioos.station.NOAA.NDBC:DKKF1:1,2019-08-01T08:00:00Z,25.1800,-80.4900,1.0,31.2,11111222 
ENP,ioos.station.NOAA.NDBC:DKKF1:1,2019-08-01T09:00:00Z,25.1800,-80.4900,1.0,31.0,11111222 
ENP,ioos.station.NOAA.NDBC:DKKF1:1,2019-08-01T10:00:00Z,25.1800,-80.4900,1.0,30.81,11111222 
ENP,ioos.station.NOAA.NDBC:DKKF1:1,2019-08-01T11:00:00Z,25.1800,-80.4900,1.0,30.71,11111222 
ENP,ioos.station.NOAA.NDBC:DKKF1:1,2019-08-01T12:00:00Z,25.1800,-80.4900,1.0,30.68,11111222 
ENP,ioos.station.NOAA.NDBC:DKKF1:1,2019-08-01T13:00:00Z,25.1800,-80.4900,1.0,30.49,11111222 
ENP,ioos.station.NOAA.NDBC:DKKF1:1,2019-08-01T14:00:00Z,25.1800,-80.4900,1.0,30.4,11111222 
ENP,ioos.station.NOAA.NDBC:DKKF1:1,2019-08-01T15:00:00Z,25.1800,-80.4900,1.0,30.3,11111222 
ENP,ioos.station.NOAA.NDBC:DKKF1:1,2019-08-01T16:00:00Z,25.1800,-80.4900,1.0,30.33,11111222 
ENP,ioos.station.NOAA.NDBC:DKKF1:1,2019-08-01T17:00:00Z,25.1800,-80.4900,1.0,30.28,11111222 
ENP,ioos.station.NOAA.NDBC:DKKF1:1,2019-08-01T18:00:00Z,25.1800,-80.4900,1.0,30.29,11111222 
ENP,ioos.station.NOAA.NDBC:DKKF1:1,2019-08-01T19:00:00Z,25.1800,-80.4900,1.0,30.35,11111222 
ENP,ioos.station.NOAA.NDBC:DKKF1:1,2019-08-01T20:00:00Z,25.1800,-80.4900,1.0,30.57,11111222 
ENP,ioos.station.NOAA.NDBC:DKKF1:1,2019-08-01T21:00:00Z,25.1800,-80.4900,1.0,30.72,11111222 
ENP,ioos.station.NOAA.NDBC:DKKF1:1,2019-08-01T22:00:00Z,25.1800,-80.4900,1.0,30.84,11111222 
ENP,ioos.station.NOAA.NDBC:DKKF1:1,2019-08-01T23:00:00Z,25.1800,-80.4900,1.0,30.86,11111222 
ENP,ioos.station.NOAA.NDBC:DKKF1:1,2019-08-02T00:00:00Z,25.1800,-80.4900,1.0,30.81,11111222 
ENP,ioos.station.NOAA.NDBC:DKKF1:1,2019-08-02T01:00:00Z,25.1800,-80.4900,1.0,30.7,11111222 
ENP,ioos.station.NOAA.NDBC:DKKF1:1,2019-08-02T03:00:00Z,25.1800,-80.4900,1.0,30.36,11111222 
ENP,ioos.station.NOAA.NDBC:DKKF1:1,2019-08-02T04:00:00Z,25.1800,-80.4900,1.0,30.22,11111222 
ENP,ioos.station.NOAA.NDBC:DKKF1:1,2019-08-02T05:00:00Z,25.1800,-80.4900,1.0,30.09,11111222 
ENP,ioos.station.NOAA.NDBC:DKKF1:1,2019-08-02T06:00:00Z,25.1800,-80.4900,1.0,29.88,11111222 
ENP,ioos.station.NOAA.NDBC:DKKF1:1,2019-08-02T07:00:00Z,25.1800,-80.4900,1.0,29.68,11111222 
ENP,ioos.station.NOAA.NDBC:DKKF1:1,2019-08-02T08:00:00Z,25.1800,-80.4900,1.0,29.58,11111222 
ENP,ioos.station.NOAA.NDBC:DKKF1:1,2019-08-02T09:00:00Z,25.1800,-80.4900,1.0,29.63,11111222 
ENP,ioos.station.NOAA.NDBC:DKKF1:1,2019-08-02T10:00:00Z,25.1800,-80.4900,1.0,29.62,11111222 
ENP,ioos.station.NOAA.NDBC:DKKF1:1,2019-08-02T11:00:00Z,25.1800,-80.4900,1.0,29.59,11111222 
ENP,ioos.station.NOAA.NDBC:DKKF1:1,2019-08-02T12:00:00Z,25.1800,-80.4900,1.0,29.55,11111222 
ENP,ioos.station.NOAA.NDBC:DKKF1:1,2019-08-02T13:00:00Z,25.1800,-80.4900,1.0,29.43,11111222 
ENP,ioos.station.NOAA.NDBC:DKKF1:1,2019-08-02T14:00:00Z,25.1800,-80.4900,1.0,29.49,11111222 
ENP,ioos.station.NOAA.NDBC:DKKF1:1,2019-08-02T15:00:00Z,25.1800,-80.4900,1.0,29.63,11111222 
ENP,ioos.station.NOAA.NDBC:DKKF1:1,2019-08-02T16:00:00Z,25.1800,-80.4900,1.0,29.91,11111222 
ENP,ioos.station.NOAA.NDBC:DKKF1:1,2019-08-02T17:00:00Z,25.1800,-80.4900,1.0,30.04,11111222 
ENP,ioos.station.NOAA.NDBC:DKKF1:1,2019-08-02T18:00:00Z,25.1800,-80.4900,1.0,30.16,11111222 
ENP,ioos.station.NOAA.NDBC:DKKF1:1,2019-08-02T19:00:00Z,25.1800,-80.4900,1.0,30.37,11111222 
ENP,ioos.station.NOAA.NDBC:DKKF1:1,2019-08-02T20:00:00Z,25.1800,-80.4900,1.0,30.51,11111222 
ENP,ioos.station.NOAA.NDBC:DKKF1:1,2019-08-02T21:00:00Z,25.1800,-80.4900,1.0,30.45,11111222 
ENP,ioos.station.NOAA.NDBC:DKKF1:1,2019-08-02T22:00:00Z,25.1800,-80.4900,1.0,30.41,11111222 
ENP,ioos.station.NOAA.NDBC:DKKF1:1,2019-08-02T23:00:00Z,25.1800,-80.4900,1.0,30.44,11111222 
ENP,ioos.station.NOAA.NDBC:DKKF1:1,2019-08-03T01:00:00Z,25.1800,-80.4900,1.0,30.41,11111222 
ENP,ioos.station.NOAA.NDBC:DKKF1:1,2019-08-03T03:00:00Z,25.1800,-80.4900,1.0,30.33,11111222 
ENP,ioos.station.NOAA.NDBC:DKKF1:1,2019-08-03T04:00:00Z,25.1800,-80.4900,1.0,30.2,11111222 
ENP,ioos.station.NOAA.NDBC:DKKF1:1,2019-08-03T05:00:00Z,25.1800,-80.4900,1.0,29.95,11111222 
ENP,ioos.station.NOAA.NDBC:DKKF1:1,2019-08-03T06:00:00Z,25.1800,-80.4900,1.0,29.87,11111222 
ENP,ioos.station.NOAA.NDBC:DKKF1:1,2019-08-03T07:00:00Z,25.1800,-80.4900,1.0,29.82,11111222 
ENP,ioos.station.NOAA.NDBC:DKKF1:1,2019-08-03T08:00:00Z,25.1800,-80.4900,1.0,29.75,11111222 
ENP,ioos.station.NOAA.NDBC:DKKF1:1,2019-08-03T09:00:00Z,25.1800,-80.4900,1.0,29.58,11111222 
ENP,ioos.station.NOAA.NDBC:DKKF1:1,2019-08-03T10:00:00Z,25.1800,-80.4900,1.0,29.53,11111222 
ENP,ioos.station.NOAA.NDBC:DKKF1:1,2019-08-03T11:00:00Z,25.1800,-80.4900,1.0,29.47,11111222 
ENP,ioos.station.NOAA.NDBC:DKKF1:1,2019-08-03T12:00:00Z,25.1800,-80.4900,1.0,29.38,11111222 
ENP,ioos.station.NOAA.NDBC:DKKF1:1,2019-08-03T13:00:00Z,25.1800,-80.4900,1.0,29.37,11111222 
ENP,ioos.station.NOAA.NDBC:DKKF1:1,2019-08-03T14:00:00Z,25.1800,-80.4900,1.0,29.44,11111222 
ENP,ioos.station.NOAA.NDBC:DKKF1:1,2019-08-03T15:00:00Z,25.1800,-80.4900,1.0,29.63,11111222 
ENP,ioos.station.NOAA.NDBC:DKKF1:1,2019-08-03T16:00:00Z,25.1800,-80.4900,1.0,29.93,11111222 
ENP,ioos.station.NOAA.NDBC:DKKF1:1,2019-08-03T17:00:00Z,25.1800,-80.4900,1.0,30.22,11111222 
ENP,ioos.station.NOAA.NDBC:DKKF1:1,2019-08-03T18:00:00Z,25.1800,-80.4900,1.0,30.49,11111222 
ENP,ioos.station.NOAA.NDBC:DKKF1:1,2019-08-03T19:00:00Z,25.1800,-80.4900,1.0,30.81,11111222 
ENP,ioos.station.NOAA.NDBC:DKKF1:1,2019-08-03T20:00:00Z,25.1800,-80.4900,1.0,31.01,11111222 
ENP,ioos.station.NOAA.NDBC:DKKF1:1,2019-08-03T21:00:00Z,25.1800,-80.4900,1.0,31.0,11111222 
ENP,ioos.station.NOAA.NDBC:DKKF1:1,2019-08-03T22:00:00Z,25.1800,-80.4900,1.0,31.13,11111222 
ENP,ioos.station.NOAA.NDBC:DKKF1:1,2019-08-03T23:00:00Z,25.1800,-80.4900,1.0,31.19,11111222 
ENP,ioos.station.NOAA.NDBC:DKKF1:1,2019-08-04T01:00:00Z,25.1800,-80.4900,1.0,31.06,11111222 
ENP,ioos.station.NOAA.NDBC:DKKF1:1,2019-08-04T03:00:00Z,25.1800,-80.4900,1.0,30.91,11111222 
ENP,ioos.station.NOAA.NDBC:DKKF1:1,2019-08-04T04:00:00Z,25.1800,-80.4900,1.0,30.71,11111222 
ENP,ioos.station.NOAA.NDBC:DKKF1:1,2019-08-04T05:00:00Z,25.1800,-80.4900,1.0,30.59,11111222 
ENP,ioos.station.NOAA.NDBC:DKKF1:1,2019-08-04T06:00:00Z,25.1800,-80.4900,1.0,30.51,11111222 
ENP,ioos.station.NOAA.NDBC:DKKF1:1,2019-08-04T07:00:00Z,25.1800,-80.4900,1.0,30.4,11111222 
ENP,ioos.station.NOAA.NDBC:DKKF1:1,2019-08-04T08:00:00Z,25.1800,-80.4900,1.0,30.34,11111222 
ENP,ioos.station.NOAA.NDBC:DKKF1:1,2019-08-04T09:00:00Z,25.1800,-80.4900,1.0,30.24,11111222 
ENP,ioos.station.NOAA.NDBC:DKKF1:1,2019-08-04T10:00:00Z,25.1800,-80.4900,1.0,30.09,11111222 
ENP,ioos.station.NOAA.NDBC:DKKF1:1,2019-08-04T11:00:00Z,25.1800,-80.4900,1.0,29.99,11111222 
ENP,ioos.station.NOAA.NDBC:DKKF1:1,2019-08-04T12:00:00Z,25.1800,-80.4900,1.0,29.97,11111222 
ENP,ioos.station.NOAA.NDBC:DKKF1:1,2019-08-04T13:00:00Z,25.1800,-80.4900,1.0,29.9,11111222 
ENP,ioos.station.NOAA.NDBC:DKKF1:1,2019-08-04T14:00:00Z,25.1800,-80.4900,1.0,29.97,11111222 
ENP,ioos.station.NOAA.NDBC:DKKF1:1,2019-08-04T15:00:00Z,25.1800,-80.4900,1.0,30.18,11111222 
ENP,ioos.station.NOAA.NDBC:DKKF1:1,2019-08-04T16:00:00Z,25.1800,-80.4900,1.0,30.43,11111222 
ENP,ioos.station.NOAA.NDBC:DKKF1:1,2019-08-04T17:00:00Z,25.1800,-80.4900,1.0,30.72,11111222 
ENP,ioos.station.NOAA.NDBC:DKKF1:1,2019-08-04T18:00:00Z,25.1800,-80.4900,1.0,31.09,11111222 
ENP,ioos.station.NOAA.NDBC:DKKF1:1,2019-08-04T19:00:00Z,25.1800,-80.4900,1.0,31.44,11111222 
ENP,ioos.station.NOAA.NDBC:DKKF1:1,2019-08-04T20:00:00Z,25.1800,-80.4900,1.0,31.58,11111222 
ENP,ioos.station.NOAA.NDBC:DKKF1:1,2019-08-04T21:00:00Z,25.1800,-80.4900,1.0,31.63,11111222 
ENP,ioos.station.NOAA.NDBC:DKKF1:1,2019-08-04T22:00:00Z,25.1800,-80.4900,1.0,31.49,11111222 
ENP,ioos.station.NOAA.NDBC:DKKF1:1,2019-08-05T00:00:00Z,25.1800,-80.4900,1.0,31.33,11111222 
ENP,ioos.station.NOAA.NDBC:DKKF1:1,2019-08-05T01:00:00Z,25.1800,-80.4900,1.0,31.25,11111222 
ENP,ioos.station.NOAA.NDBC:DKKF1:1,2019-08-05T03:00:00Z,25.1800,-80.4900,1.0,31.08,11111222 
ENP,ioos.station.NOAA.NDBC:DKKF1:1,2019-08-05T04:00:00Z,25.1800,-80.4900,1.0,31.02,11111222 
ENP,ioos.station.NOAA.NDBC:DKKF1:1,2019-08-05T05:00:00Z,25.1800,-80.4900,1.0,30.96,11111222 
ENP,ioos.station.NOAA.NDBC:DKKF1:1,2019-08-05T06:00:00Z,25.1800,-80.4900,1.0,30.85,11111222 
ENP,ioos.station.NOAA.NDBC:DKKF1:1,2019-08-05T14:00:00Z,25.1800,-80.4900,1.0,30.34,11111222 
ENP,ioos.station.NOAA.NDBC:DKKF1:1,2019-08-05T15:00:00Z,25.1800,-80.4900,1.0,30.32,11111222 
ENP,ioos.station.NOAA.NDBC:DKKF1:1,2019-08-05T16:00:00Z,25.1800,-80.4900,1.0,30.38,11111222 
ENP,ioos.station.NOAA.NDBC:DKKF1:1,2019-08-05T17:00:00Z,25.1800,-80.4900,1.0,30.54,11111222 
ENP,ioos.station.NOAA.NDBC:DKKF1:1,2019-08-05T18:00:00Z,25.1800,-80.4900,1.0,30.74,11111222 
ENP,ioos.station.NOAA.NDBC:DKKF1:1,2019-08-05T19:00:00Z,25.1800,-80.4900,1.0,31.14,11111222 
ENP,ioos.station.NOAA.NDBC:DKKF1:1,2019-08-05T20:00:00Z,25.1800,-80.4900,1.0,31.54,11111222 
ENP,ioos.station.NOAA.NDBC:DKKF1:1,2019-08-05T21:00:00Z,25.1800,-80.4900,1.0,31.6,11111222 
ENP,ioos.station.NOAA.NDBC:DKKF1:1,2019-08-05T22:00:00Z,25.1800,-80.4900,1.0,31.58,11111222 
ENP,ioos.station.NOAA.NDBC:DKKF1:1,2019-08-05T23:00:00Z,25.1800,-80.4900,1.0,31.64,11111222 
ENP,ioos.station.NOAA.NDBC:DKKF1:1,2019-08-06T00:00:00Z,25.1800,-80.4900,1.0,31.58,11111222 
ENP,ioos.station.NOAA.NDBC:DKKF1:1,2019-08-06T01:00:00Z,25.1800,-80.4900,1.0,31.43,11111222 
ENP,ioos.station.NOAA.NDBC:DKKF1:1,2019-08-06T03:00:00Z,25.1800,-80.4900,1.0,31.28,11111222 
ENP,ioos.station.NOAA.NDBC:DKKF1:1,2019-08-06T04:00:00Z,25.1800,-80.4900,1.0,31.21,11111222 
ENP,ioos.station.NOAA.NDBC:DKKF1:1,2019-08-06T05:00:00Z,25.1800,-80.4900,1.0,31.12,11111222 
ENP,ioos.station.NOAA.NDBC:DKKF1:1,2019-08-06T06:00:00Z,25.1800,-80.4900,1.0,31.07,11111222 
ENP,ioos.station.NOAA.NDBC:DKKF1:1,2019-08-06T07:00:00Z,25.1800,-80.4900,1.0,30.98,11111222 
ENP,ioos.station.NOAA.NDBC:DKKF1:1,2019-08-06T08:00:00Z,25.1800,-80.4900,1.0,30.81,11111222 
ENP,ioos.station.NOAA.NDBC:DKKF1:1,2019-08-06T09:00:00Z,25.1800,-80.4900,1.0,30.74,11111222 
ENP,ioos.station.NOAA.NDBC:DKKF1:1,2019-08-06T10:00:00Z,25.1800,-80.4900,1.0,30.66,11111222 
ENP,ioos.station.NOAA.NDBC:DKKF1:1,2019-08-06T11:00:00Z,25.1800,-80.4900,1.0,30.58,11111222 
ENP,ioos.station.NOAA.NDBC:DKKF1:1,2019-08-06T12:00:00Z,25.1800,-80.4900,1.0,30.53,11111222 
ENP,ioos.station.NOAA.NDBC:DKKF1:1,2019-08-06T13:00:00Z,25.1800,-80.4900,1.0,30.54,11111222 
ENP,ioos.station.NOAA.NDBC:DKKF1:1,2019-08-06T14:00:00Z,25.1800,-80.4900,1.0,30.59,11111222 
ENP,ioos.station.NOAA.NDBC:DKKF1:1,2019-08-06T15:00:00Z,25.1800,-80.4900,1.0,30.62,11111222 
ENP,ioos.station.NOAA.NDBC:DKKF1:1,2019-08-06T16:00:00Z,25.1800,-80.4900,1.0,30.78,11111222 
ENP,ioos.station.NOAA.NDBC:DKKF1:1,2019-08-06T17:00:00Z,25.1800,-80.4900,1.0,30.77,11111222 
ENP,ioos.station.NOAA.NDBC:DKKF1:1,2019-08-06T18:00:00Z,25.1800,-80.4900,1.0,30.85,11111222 
ENP,ioos.station.NOAA.NDBC:DKKF1:1,2019-08-06T19:00:00Z,25.1800,-80.4900,1.0,30.91,11111222 
ENP,ioos.station.NOAA.NDBC:DKKF1:1,2019-08-06T20:00:00Z,25.1800,-80.4900,1.0,30.87,11111222 
ENP,ioos.station.NOAA.NDBC:DKKF1:1,2019-08-06T21:00:00Z,25.1800,-80.4900,1.0,30.88,11111222 
ENP,ioos.station.NOAA.NDBC:DKKF1:1,2019-08-06T22:00:00Z,25.1800,-80.4900,1.0,30.93,11111222 
ENP,ioos.station.NOAA.NDBC:DKKF1:1,2019-08-06T23:00:00Z,25.1800,-80.4900,1.0,30.89,11111222 
ENP,ioos.station.NOAA.NDBC:DKKF1:1,2019-08-07T01:00:00Z,25.1800,-80.4900,1.0,30.75,11111222 
ENP,ioos.station.NOAA.NDBC:DKKF1:1,2019-08-07T03:00:00Z,25.1800,-80.4900,1.0,30.58,11111222 
ENP,ioos.station.NOAA.NDBC:DKKF1:1,2019-08-07T04:00:00Z,25.1800,-80.4900,1.0,30.42,11111222 
ENP,ioos.station.NOAA.NDBC:DKKF1:1,2019-08-07T05:00:00Z,25.1800,-80.4900,1.0,30.26,11111222 
ENP,ioos.station.NOAA.NDBC:DKKF1:1,2019-08-07T06:00:00Z,25.1800,-80.4900,1.0,30.15,11111222 
ENP,ioos.station.NOAA.NDBC:DKKF1:1,2019-08-07T07:00:00Z,25.1800,-80.4900,1.0,30.04,11111222 
ENP,ioos.station.NOAA.NDBC:DKKF1:1,2019-08-07T08:00:00Z,25.1800,-80.4900,1.0,29.88,11111222 
ENP,ioos.station.NOAA.NDBC:DKKF1:1,2019-08-07T09:00:00Z,25.1800,-80.4900,1.0,29.77,11111222 
ENP,ioos.station.NOAA.NDBC:DKKF1:1,2019-08-07T10:00:00Z,25.1800,-80.4900,1.0,29.76,11111222 
ENP,ioos.station.NOAA.NDBC:DKKF1:1,2019-08-07T11:00:00Z,25.1800,-80.4900,1.0,29.76,11111222 
ENP,ioos.station.NOAA.NDBC:DKKF1:1,2019-08-07T12:00:00Z,25.1800,-80.4900,1.0,29.76,11111222 
ENP,ioos.station.NOAA.NDBC:DKKF1:1,2019-08-07T13:00:00Z,25.1800,-80.4900,1.0,29.78,11111222 
ENP,ioos.station.NOAA.NDBC:DKKF1:1,2019-08-07T14:00:00Z,25.1800,-80.4900,1.0,29.83,11111222 
ENP,ioos.station.NOAA.NDBC:DKKF1:1,2019-08-07T15:00:00Z,25.1800,-80.4900,1.0,29.92,11111222 
ENP,ioos.station.NOAA.NDBC:DKKF1:1,2019-08-07T16:00:00Z,25.1800,-80.4900,1.0,30.05,11111222 
ENP,ioos.station.NOAA.NDBC:DKKF1:1,2019-08-07T17:00:00Z,25.1800,-80.4900,1.0,30.32,11111222 
ENP,ioos.station.NOAA.NDBC:DKKF1:1,2019-08-07T18:00:00Z,25.1800,-80.4900,1.0,30.73,11111222 
ENP,ioos.station.NOAA.NDBC:DKKF1:1,2019-08-07T19:00:00Z,25.1800,-80.4900,1.0,30.93,11111222 
ENP,ioos.station.NOAA.NDBC:DKKF1:1,2019-08-07T20:00:00Z,25.1800,-80.4900,1.0,31.2,11111222 
ENP,ioos.station.NOAA.NDBC:DKKF1:1,2019-08-07T21:00:00Z,25.1800,-80.4900,1.0,31.43,11111222 
ENP,ioos.station.NOAA.NDBC:DKKF1:1,2019-08-07T22:00:00Z,25.1800,-80.4900,1.0,31.65,11111222 
ENP,ioos.station.NOAA.NDBC:DKKF1:1,2019-08-07T23:00:00Z,25.1800,-80.4900,1.0,31.73,11111222 
ENP,ioos.station.NOAA.NDBC:DKKF1:1,2019-08-08T00:00:00Z,25.1800,-80.4900,1.0,31.74,11111222 
ENP,ioos.station.NOAA.NDBC:DKKF1:1,2019-08-08T01:00:00Z,25.1800,-80.4900,1.0,31.71,11111222 
ENP,ioos.station.NOAA.NDBC:DKKF1:1,2019-08-08T03:00:00Z,25.1800,-80.4900,1.0,31.64,11111222 
ENP,ioos.station.NOAA.NDBC:DKKF1:1,2019-08-08T04:00:00Z,25.1800,-80.4900,1.0,31.54,11111222 
ENP,ioos.station.NOAA.NDBC:DKKF1:1,2019-08-08T05:00:00Z,25.1800,-80.4900,1.0,31.32,11111222 
ENP,ioos.station.NOAA.NDBC:DKKF1:1,2019-08-08T06:00:00Z,25.1800,-80.4900,1.0,31.17,11111222 
ENP,ioos.station.NOAA.NDBC:DKKF1:1,2019-08-08T07:00:00Z,25.1800,-80.4900,1.0,31.04,11111222 
ENP,ioos.station.NOAA.NDBC:DKKF1:1,2019-08-08T08:00:00Z,25.1800,-80.4900,1.0,30.99,11111222 
ENP,ioos.station.NOAA.NDBC:DKKF1:1,2019-08-08T09:00:00Z,25.1800,-80.4900,1.0,30.96,11111222 
ENP,ioos.station.NOAA.NDBC:DKKF1:1,2019-08-08T10:00:00Z,25.1800,-80.4900,1.0,30.91,11111222 
ENP,ioos.station.NOAA.NDBC:DKKF1:1,2019-08-08T11:00:00Z,25.1800,-80.4900,1.0,30.83,11111222 
ENP,ioos.station.NOAA.NDBC:DKKF1:1,2019-08-08T12:00:00Z,25.1800,-80.4900,1.0,30.7,11111222 
ENP,ioos.station.NOAA.NDBC:DKKF1:1,2019-08-08T13:00:00Z,25.1800,-80.4900,1.0,30.65,11111222 
ENP,ioos.station.NOAA.NDBC:DKKF1:1,2019-08-08T14:00:00Z,25.1800,-80.4900,1.0,30.62,11111222 
ENP,ioos.station.NOAA.NDBC:DKKF1:1,2019-08-08T16:00:00Z,25.1800,-80.4900,1.0,30.85,11111222 
ENP,ioos.station.NOAA.NDBC:DKKF1:1,2019-08-08T17:00:00Z,25.1800,-80.4900,1.0,31.09,11111222 
ENP,ioos.station.NOAA.NDBC:DKKF1:1,2019-08-08T18:00:00Z,25.1800,-80.4900,1.0,31.44,11111222 
ENP,ioos.station.NOAA.NDBC:DKKF1:1,2019-08-08T19:00:00Z,25.1800,-80.4900,1.0,31.98,11111222 
ENP,ioos.station.NOAA.NDBC:DKKF1:1,2019-08-08T20:00:00Z,25.1800,-80.4900,1.0,32.47,11111222 
ENP,ioos.station.NOAA.NDBC:DKKF1:1,2019-08-08T21:00:00Z,25.1800,-80.4900,1.0,32.52,11111222 
ENP,ioos.station.NOAA.NDBC:DKKF1:1,2019-08-08T22:00:00Z,25.1800,-80.4900,1.0,32.45,11111222 
ENP,ioos.station.NOAA.NDBC:DKKF1:1,2019-08-08T23:00:00Z,25.1800,-80.4900,1.0,32.39,11111222 
ENP,ioos.station.NOAA.NDBC:DKKF1:1,2019-08-09T00:00:00Z,25.1800,-80.4900,1.0,32.26,11111222 
ENP,ioos.station.NOAA.NDBC:DKKF1:1,2019-08-09T01:00:00Z,25.1800,-80.4900,1.0,32.27,11111222 
ENP,ioos.station.NOAA.NDBC:DKKF1:1,2019-08-09T03:00:00Z,25.1800,-80.4900,1.0,32.16,11111222 
ENP,ioos.station.NOAA.NDBC:DKKF1:1,2019-08-09T04:00:00Z,25.1800,-80.4900,1.0,32.08,11111222 
ENP,ioos.station.NOAA.NDBC:DKKF1:1,2019-08-09T05:00:00Z,25.1800,-80.4900,1.0,31.99,11111222 
ENP,ioos.station.NOAA.NDBC:DKKF1:1,2019-08-09T06:00:00Z,25.1800,-80.4900,1.0,31.93,11111222 
ENP,ioos.station.NOAA.NDBC:DKKF1:1,2019-08-09T07:00:00Z,25.1800,-80.4900,1.0,31.9,11111222 
ENP,ioos.station.NOAA.NDBC:DKKF1:1,2019-08-09T08:00:00Z,25.1800,-80.4900,1.0,31.84,11111222 
ENP,ioos.station.NOAA.NDBC:DKKF1:1,2019-08-09T09:00:00Z,25.1800,-80.4900,1.0,31.77,11111222 
ENP,ioos.station.NOAA.NDBC:DKKF1:1,2019-08-09T10:00:00Z,25.1800,-80.4900,1.0,31.73,11111222 
ENP,ioos.station.NOAA.NDBC:DKKF1:1,2019-08-09T11:00:00Z,25.1800,-80.4900,1.0,31.63,11111222 
ENP,ioos.station.NOAA.NDBC:DKKF1:1,2019-08-09T12:00:00Z,25.1800,-80.4900,1.0,31.5,11111222 
ENP,ioos.station.NOAA.NDBC:DKKF1:1,2019-08-09T13:00:00Z,25.1800,-80.4900,1.0,31.35,11111222 
ENP,ioos.station.NOAA.NDBC:DKKF1:1,2019-08-09T14:00:00Z,25.1800,-80.4900,1.0,31.31,11111222 
ENP,ioos.station.NOAA.NDBC:DKKF1:1,2019-08-09T15:00:00Z,25.1800,-80.4900,1.0,31.37,11111222 
ENP,ioos.station.NOAA.NDBC:DKKF1:1,2019-08-09T16:00:00Z,25.1800,-80.4900,1.0,31.54,11111222 
ENP,ioos.station.NOAA.NDBC:DKKF1:1,2019-08-09T17:00:00Z,25.1800,-80.4900,1.0,31.8,11111222 
ENP,ioos.station.NOAA.NDBC:DKKF1:1,2019-08-09T18:00:00Z,25.1800,-80.4900,1.0,32.23,11111222 
ENP,ioos.station.NOAA.NDBC:DKKF1:1,2019-08-09T19:00:00Z,25.1800,-80.4900,1.0,32.63,11111222 
ENP,ioos.station.NOAA.NDBC:DKKF1:1,2019-08-09T20:00:00Z,25.1800,-80.4900,1.0,33.14,11111222 
ENP,ioos.station.NOAA.NDBC:DKKF1:1,2019-08-09T21:00:00Z,25.1800,-80.4900,1.0,33.41,11111222 
ENP,ioos.station.NOAA.NDBC:DKKF1:1,2019-08-09T22:00:00Z,25.1800,-80.4900,1.0,33.36,11111222 
ENP,ioos.station.NOAA.NDBC:DKKF1:1,2019-08-09T23:00:00Z,25.1800,-80.4900,1.0,32.99,11111222 
ENP,ioos.station.NOAA.NDBC:DKKF1:1,2019-08-10T00:00:00Z,25.1800,-80.4900,1.0,32.76,11111222 
ENP,ioos.station.NOAA.NDBC:DKKF1:1,2019-08-10T01:00:00Z,25.1800,-80.4900,1.0,32.59,11111222 
ENP,ioos.station.NOAA.NDBC:DKKF1:1,2019-08-10T03:00:00Z,25.1800,-80.4900,1.0,32.51,11111222 
ENP,ioos.station.NOAA.NDBC:DKKF1:1,2019-08-10T04:00:00Z,25.1800,-80.4900,1.0,32.5,11111222 
ENP,ioos.station.NOAA.NDBC:DKKF1:1,2019-08-10T05:00:00Z,25.1800,-80.4900,1.0,32.51,11111222 
ENP,ioos.station.NOAA.NDBC:DKKF1:1,2019-08-10T06:00:00Z,25.1800,-80.4900,1.0,32.5,11111222 
ENP,ioos.station.NOAA.NDBC:DKKF1:1,2019-08-10T07:00:00Z,25.1800,-80.4900,1.0,32.48,11111222 
ENP,ioos.station.NOAA.NDBC:DKKF1:1,2019-08-10T08:00:00Z,25.1800,-80.4900,1.0,32.42,11111222 
ENP,ioos.station.NOAA.NDBC:DKKF1:1,2019-08-10T09:00:00Z,25.1800,-80.4900,1.0,32.42,11111222 
ENP,ioos.station.NOAA.NDBC:DKKF1:1,2019-08-10T10:00:00Z,25.1800,-80.4900,1.0,32.44,11111222 
ENP,ioos.station.NOAA.NDBC:DKKF1:1,2019-08-10T11:00:00Z,25.1800,-80.4900,1.0,32.45,11111222 
ENP,ioos.station.NOAA.NDBC:DKKF1:1,2019-08-10T12:00:00Z,25.1800,-80.4900,1.0,32.45,11111222 
ENP,ioos.station.NOAA.NDBC:DKKF1:1,2019-08-10T13:00:00Z,25.1800,-80.4900,1.0,32.41,11111222 
ENP,ioos.station.NOAA.NDBC:DKKF1:1,2019-08-10T14:00:00Z,25.1800,-80.4900,1.0,32.41,11111222 
ENP,ioos.station.NOAA.NDBC:DKKF1:1,2019-08-10T15:00:00Z,25.1800,-80.4900,1.0,32.52,11111222 
ENP,ioos.station.NOAA.NDBC:DKKF1:1,2019-08-10T16:00:00Z,25.1800,-80.4900,1.0,32.7,11111222 
ENP,ioos.station.NOAA.NDBC:DKKF1:1,2019-08-10T17:00:00Z,25.1800,-80.4900,1.0,33.21,11111222 
ENP,ioos.station.NOAA.NDBC:DKKF1:1,2019-08-10T18:00:00Z,25.1800,-80.4900,1.0,33.48,11111222 
ENP,ioos.station.NOAA.NDBC:DKKF1:1,2019-08-10T19:00:00Z,25.1800,-80.4900,1.0,33.5,11111222 
ENP,ioos.station.NOAA.NDBC:DKKF1:1,2019-08-10T20:00:00Z,25.1800,-80.4900,1.0,33.77,11111222 
ENP,ioos.station.NOAA.NDBC:DKKF1:1,2019-08-10T21:00:00Z,25.1800,-80.4900,1.0,33.85,11111222 
ENP,ioos.station.NOAA.NDBC:DKKF1:1,2019-08-10T22:00:00Z,25.1800,-80.4900,1.0,33.48,11111222 
ENP,ioos.station.NOAA.NDBC:DKKF1:1,2019-08-10T23:00:00Z,25.1800,-80.4900,1.0,33.55,11111222 
ENP,ioos.station.NOAA.NDBC:DKKF1:1,2019-08-11T00:00:00Z,25.1800,-80.4900,1.0,33.4,11111222 
ENP,ioos.station.NOAA.NDBC:DKKF1:1,2019-08-11T01:00:00Z,25.1800,-80.4900,1.0,33.33,11111222 
ENP,ioos.station.NOAA.NDBC:DKKF1:1,2019-08-11T03:00:00Z,25.1800,-80.4900,1.0,33.35,11111222 
ENP,ioos.station.NOAA.NDBC:DKKF1:1,2019-08-11T04:00:00Z,25.1800,-80.4900,1.0,33.3,11111222 
ENP,ioos.station.NOAA.NDBC:DKKF1:1,2019-08-11T05:00:00Z,25.1800,-80.4900,1.0,33.31,11111222 
ENP,ioos.station.NOAA.NDBC:DKKF1:1,2019-08-11T06:00:00Z,25.1800,-80.4900,1.0,33.29,11111222 
ENP,ioos.station.NOAA.NDBC:DKKF1:1,2019-08-11T07:00:00Z,25.1800,-80.4900,1.0,33.27,11111222 
ENP,ioos.station.NOAA.NDBC:DKKF1:1,2019-08-11T08:00:00Z,25.1800,-80.4900,1.0,33.26,11111222 
ENP,ioos.station.NOAA.NDBC:DKKF1:1,2019-08-11T09:00:00Z,25.1800,-80.4900,1.0,33.25,11111222 
ENP,ioos.station.NOAA.NDBC:DKKF1:1,2019-08-11T10:00:00Z,25.1800,-80.4900,1.0,33.24,11111222 
ENP,ioos.station.NOAA.NDBC:DKKF1:1,2019-08-11T11:00:00Z,25.1800,-80.4900,1.0,32.98,11111222 
ENP,ioos.station.NOAA.NDBC:DKKF1:1,2019-08-11T12:00:00Z,25.1800,-80.4900,1.0,32.9,11111222 
ENP,ioos.station.NOAA.NDBC:DKKF1:1,2019-08-11T13:00:00Z,25.1800,-80.4900,1.0,32.96,11111222 
ENP,ioos.station.NOAA.NDBC:DKKF1:1,2019-08-11T14:00:00Z,25.1800,-80.4900,1.0,32.86,11111222 
ENP,ioos.station.NOAA.NDBC:DKKF1:1,2019-08-11T15:00:00Z,25.1800,-80.4900,1.0,32.47,11111222 
ENP,ioos.station.NOAA.NDBC:DKKF1:1,2019-08-11T16:00:00Z,25.1800,-80.4900,1.0,32.28,11111222 
ENP,ioos.station.NOAA.NDBC:DKKF1:1,2019-08-11T17:00:00Z,25.1800,-80.4900,1.0,33.07,11111222 
ENP,ioos.station.NOAA.NDBC:DKKF1:1,2019-08-11T18:00:00Z,25.1800,-80.4900,1.0,33.15,11111222 
ENP,ioos.station.NOAA.NDBC:DKKF1:1,2019-08-11T19:00:00Z,25.1800,-80.4900,1.0,33.63,11111222 
ENP,ioos.station.NOAA.NDBC:DKKF1:1,2019-08-11T20:00:00Z,25.1800,-80.4900,1.0,34.79,11111222 
ENP,ioos.station.NOAA.NDBC:DKKF1:1,2019-08-11T21:00:00Z,25.1800,-80.4900,1.0,34.72,11111222 
ENP,ioos.station.NOAA.NDBC:DKKF1:1,2019-08-11T22:00:00Z,25.1800,-80.4900,1.0,34.37,11111222 
ENP,ioos.station.NOAA.NDBC:DKKF1:1,2019-08-11T23:00:00Z,25.1800,-80.4900,1.0,34.67,11111222 
ENP,ioos.station.NOAA.NDBC:DKKF1:1,2019-08-12T00:00:00Z,25.1800,-80.4900,1.0,34.52,11111222 
ENP,ioos.station.NOAA.NDBC:DKKF1:1,2019-08-12T01:00:00Z,25.1800,-80.4900,1.0,34.31,11111222 
ENP,ioos.station.NOAA.NDBC:DKKF1:1,2019-08-12T03:00:00Z,25.1800,-80.4900,1.0,33.55,11111222 
ENP,ioos.station.NOAA.NDBC:DKKF1:1,2019-08-12T04:00:00Z,25.1800,-80.4900,1.0,33.23,11111222 
ENP,ioos.station.NOAA.NDBC:DKKF1:1,2019-08-12T05:00:00Z,25.1800,-80.4900,1.0,33.0,11111222 
ENP,ioos.station.NOAA.NDBC:DKKF1:1,2019-08-12T06:00:00Z,25.1800,-80.4900,1.0,32.8,11111222 
ENP,ioos.station.NOAA.NDBC:DKKF1:1,2019-08-12T07:00:00Z,25.1800,-80.4900,1.0,32.7,11111222 
ENP,ioos.station.NOAA.NDBC:DKKF1:1,2019-08-12T08:00:00Z,25.1800,-80.4900,1.0,32.7,11111222 
ENP,ioos.station.NOAA.NDBC:DKKF1:1,2019-08-12T09:00:00Z,25.1800,-80.4900,1.0,32.61,11111222 
ENP,ioos.station.NOAA.NDBC:DKKF1:1,2019-08-12T10:00:00Z,25.1800,-80.4900,1.0,32.31,11111222 
ENP,ioos.station.NOAA.NDBC:DKKF1:1,2019-08-12T11:00:00Z,25.1800,-80.4900,1.0,32.02,11111222 
ENP,ioos.station.NOAA.NDBC:DKKF1:1,2019-08-12T12:00:00Z,25.1800,-80.4900,1.0,31.83,11111222 
ENP,ioos.station.NOAA.NDBC:DKKF1:1,2019-08-12T13:00:00Z,25.1800,-80.4900,1.0,31.94,11111222 
ENP,ioos.station.NOAA.NDBC:DKKF1:1,2019-08-12T14:00:00Z,25.1800,-80.4900,1.0,31.95,11111222 
ENP,ioos.station.NOAA.NDBC:DKKF1:1,2019-08-12T15:00:00Z,25.1800,-80.4900,1.0,31.97,11111222 
ENP,ioos.station.NOAA.NDBC:DKKF1:1,2019-08-12T16:00:00Z,25.1800,-80.4900,1.0,31.95,11111222 
ENP,ioos.station.NOAA.NDBC:DKKF1:1,2019-08-12T17:00:00Z,25.1800,-80.4900,1.0,32.52,11111222 